CAPE
70 130 703 1019 816 662 876 923 1369 1233 920 1080 1268 1300 1388 1413 1208 990 1212 1124 1135 1196 1241 1157 1061 1060 980 982 1052 1290 1385 1504 1126 1106 803 654 874 989 908 1074 754 920 1637
112 268 457 902 1104 916 879 1172 1136 1022 1359 1360 1262 1396 1430 1351 699 803 884 1173 862 1184 1025 991 1053 1251 1507 1283 1395 1306 1220 1397 1020 1111 902 681 567 518 543 768 514 1267 1451
116 152 441 724 1144 1455 1342 1301 988 1045 1100 1348 1413 1401 1299 1266 1560 1060 866 927 980 1081 1365 1102 791 1095 1168 1046 1237 1238 1202 687 616 1010 1377 711 278 606 691 888 1022 1122 1291
91 162 518 711 946 1291 1057 871 1258 1167 1347 1334 1507 1548 1525 1138 814 1016 676 480 526 601 509 693 906 1071 1251 1419 1435 1357 1053 525 383 633 647 534 526 1219 1170 560 685 617 1068
104 288 322 773 957 1112 1470 1447 1163 1225 1182 1098 1068 993 629 389 1343 885 625 1515 1298 1160 1094 1098 949 866 838 802 940 951 968 722 1036 1069 18 95 720 1121 772 739 470 563 1007
154 278 570 1195 1379 1425 1406 1388 1356 1325 1340 374 493 1008 1449 1299 1120 1080 1090 1193 1116 1137 1069 843 753 765 859 869 751 823 1091 1279 1478 449 235 0 218 448 1266 1192 617 43 643
169 304 745 1001 1138 1445 1459 1481 1342 1438 840 441 1431 1429 1343 1331 1327 1088 901 1115 1061 836 804 859 631 583 549 599 489 440 550 1000 1235 560 280 22 0 458 924 758 1000 372 97
194 412 436 556 985 1249 1347 1476 1395 943 514 433 1363 1275 931 1273 1333 1247 1093 1045 1031 896 747 723 642 553 522 436 480 435 381 396 1039 718 1074 386 0 30 1085 1295 1318 549 529
169 398 604 598 704 1280 1412 1412 1457 1448 1394 1239 969 916 1081 1267 1173 1102 1230 1314 1130 872 750 571 363 334 300 250 214 223 296 443 825 937 907 1015 166 0 48 1453 1614 802 687
84 255 429 276 734 710 775 1094 1133 1216 1299 1277 1146 692 642 977 685 373 581 528 619 700 649 547 263 105 84 63 133 588 558 1118 1524 1245 1298 987 415 261 115 436 1239 1072 891
2 83 509 537 761 758 520 627 986 845 553 257 157 350 495 258 372 374 85 103 611 847 1021 1301 1022 614 231 367 916 741 648 1330 1093 749 1286 620 539 591 414 297 457 792 908
0 9 98 473 646 440 218 974 686 1057 1270 865 1016 1211 1103 981 756 725 548 540 861 877 1160 903 560 308 792 983 1432 1214 1201 209 233 215 1265 558 543 717 771 511 372 522 852
0 0 33 176 450 259 466 700 663 708 935 1287 1535 1573 1327 1227 1397 1356 1617 1504 1820 1293 1463 1227 1308 1244 643 662 416 356 495 346 167 151 616 425 331 677 861 858 780 758 633
14 8 30 126 180 232 462 805 952 622 913 1207 1313 1758 1484 1430 1154 1048 1051 1187 1470 1293 1130 1347 1288 1333 1118 1028 1063 949 739 682 622 469 801 482 451 548 809 865 934 1002 1105
14 21 31 201 302 120 256 729 633 350 734 865 1256 1786 1873 1845 805 1515 1472 1249 1233 871 1045 1056 929 1295 1099 988 740 773 344 487 716 704 891 878 862 788 767 977 1203 1263 1131
39 46 80 107 82 75 327 427 660 332 537 786 1073 1552 1738 1762 1908 1527 1735 1508 1576 966 715 766 1471 1130 942 662 407 382 492 515 504 762 1000 1313 1163 1124 1062 1102 1192 1272 1259
21 41 23 51 50 148 422 179 388 151 243 480 620 1017 1541 1991 2159 2191 1554 1379 1357 1498 2033 1687 1294 1213 1015 565 697 617 513 629 282 296 650 1009 1392 1293 815 1004 609 707 851
61 56 39 4 15 75 64 434 318 197 319 336 315 322 628 1199 1555 1620 1299 1506 1710 1460 749 1107 710 868 886 712 159 8 24 31 52 272 29 164 42 2 903 369 81 0 0
31 30 2 0 0 0 27 233 232 235 237 178 80 53 277 1279 1585 1530 1142 1359 2089 1371 1091 1362 918 720 475 312 1 0 42 62 316 1 64 145 95 60 106 169 0 0 6
170 16 88 53 58 24 20 197 134 48 57 54 36 79 389 1321 1921 1896 1297 1436 1604 1139 1325 1233 1329 768 680 279 3 12 25 0 103 202 49 117 88 115 134 42 11 0 3
274 16 29 149 230 297 306 108 11 0 0 30 43 82 370 1331 1632 2061 1657 1070 1119 1131 908 1617 1379 1349 496 192 77 41 120 244 224 207 100 138 148 203 247 137 156 74 39
421 295 53 61 221 417 348 374 100 13 36 68 112 348 878 1708 2000 2099 2233 1912 1329 785 1125 1242 1601 1012 237 360 368 183 188 210 183 199 138 132 38 142 161 156 134 155 53
570 715 755 739 436 499 403 352 383 486 432 251 81 261 479 1427 1849 1976 2446 2532 2322 1675 273 1150 1271 1129 290 232 688 1109 661 334 431 340 203 216 235 335 354 382 268 60 53
385 634 874 1148 1243 1141 1111 653 668 426 336 68 134 159 1084 1670 2053 2172 2362 2507 2665 2040 1511 1276 1531 1684 1883 1258 842 1130 1501 1181 751 625 688 543 709 703 551 522 381 108 88
305 389 617 1045 1324 1447 1417 1293 757 577 245 75 81 541 1502 2157 1997 1918 2502 2615 2594 2416 2105 2092 2408 2287 2172 1588 1313 1088 924 1428 1311 826 553 529 644 606 568 783 598 291 74
196 303 489 983 1233 1347 1355 1352 1177 831 584 255 391 874 1241 1327 1461 1656 2436 2611 2815 2675 2551 2432 2367 2406 2303 2126 1952 1604 1221 985 959 743 596 750 900 985 879 785 720 466 1
CIN
-11 -11 -0 -0 -0 -0 -0 -0 -0 -0 -0 -0 -0 -0 -0 -0 -0 -2 -1 -0 -0 -0 -0 -0 -0 -0 -0 -0 -0 -0 -0 -0 -26 -11 -49 -69 -40 -20 -16 -3 -6 -2 -1
-10 -2 -3 -1 -0 -0 -0 -0 -0 -0 -0 -0 -0 -0 -0 -0 -12 -2 -0 -0 -2 -0 -0 -0 -0 -0 -0 -0 -0 -0 -0 -0 -27 -24 -37 -65 -60 -45 -41 -9 -13 -0 -0
-4 -11 -1 -3 -0 -0 -0 -0 -0 -0 -0 -1 -0 -0 -0 -0 -0 -0 -0 -0 -0 -2 -0 -0 -0 -0 -0 -0 -2 -3 -5 -19 -37 -40 -21 -1 -58 -44 -32 -19 -10 -7 -0
-7 -4 -11 -6 -2 -0 -2 -2 -0 -0 -0 -0 -0 -0 -0 -0 -1 -0 -1 -16 -13 -2 -5 -0 -0 -0 -0 -0 -0 -1 -13 -34 -46 -39 -20 -2 -25 -16 -8 -37 -22 -18 -1
-8 -3 -7 -5 -1 -0 -0 -0 -2 -1 -0 -0 -2 -4 -13 -23 -0 -0 -1 -0 -0 -0 -0 -0 -0 -4 -13 -19 -13 -14 -20 -36 -33 -29 -0 -6 -7 -17 -18 -14 -27 -19 -8
-7 -6 -2 -0 -0 -0 -0 -0 -0 -0 -0 -39 -32 -1 -0 -0 -0 -0 -0 -0 -0 -1 -3 -10 -13 -16 -17 -26 -34 -30 -23 -28 -25 -1 -1 -0 -22 -46 -3 -0 -12 -105 -11
-39 -12 -0 -0 -0 -0 -0 -0 -0 -0 -5 -29 -0 -0 -0 -0 -0 -1 -0 -0 -5 -25 -29 -27 -41 -51 -40 -42 -46 -55 -50 -39 -6 -7 -5 -21 -0 -52 -19 -25 -0 -32 -87
-33 -4 -0 -4 -1 -0 -0 -0 -0 -0 -17 -20 -0 -0 -0 -0 -0 -0 -2 -4 -16 -25 -36 -39 -41 -41 -47 -63 -65 -69 -60 -65 -23 -15 -11 -16 -0 -88 -26 -4 -0 -35 -27
-9 -8 -4 -1 -1 -0 -0 -0 -0 -0 -0 -0 -1 -3 -0 -0 -6 -12 -7 -2 -19 -34 -40 -53 -71 -73 -73 -83 -80 -85 -72 -71 -59 -33 -4 -41 -102 -0 -96 -25 -2 -28 -29
-17 -23 -8 -11 -3 -1 -1 -0 -0 -0 -0 -0 -5 -28 -32 -19 -28 -49 -44 -56 -56 -49 -45 -55 -97 -108 -118 -109 -80 -60 -64 -63 -28 -4 -20 -41 -81 -111 -150 -120 -35 -33 -30
-24 -66 -7 -6 -0 -1 -1 -4 -4 -14 -26 -47 -82 -56 -48 -17 -14 -38 -144 -137 -55 -43 -38 -27 -46 -71 -87 -86 -62 -44 -58 -24 -10 -5 -10 -75 -74 -87 -103 -115 -100 -68 -56
-0 -20 -16 -11 -7 -18 -2 -7 -2 -0 -2 -1 -1 -2 -9 -3 -9 -5 -28 -52 -35 -37 -44 -49 -61 -70 -55 -9 -36 -49 -20 -3 -2 -3 -21 -66 -71 -83 -86 -95 -112 -91 -62
-0 -0 -44 -19 -2 -9 -4 -8 -11 -3 -2 -1 -3 -0 -9 -7 -4 -7 -18 -7 -13 -34 -11 -30 -24 -26 -1 -3 -2 -2 -2 -2 -3 -1 -59 -66 -80 -67 -66 -75 -83 -85 -94
-3 -7 -26 -19 -6 -17 -11 -6 -5 -2 -2 -1 -2 -5 -2 -5 -0 -5 -5 -1 -4 -1 -9 -1 -3 -7 -1 -3 -1 -0 -1 -1 -1 -2 -57 -65 -66 -83 -70 -65 -51 -43 -35
-15 -3 -3 -2 -24 -31 -22 -1 -3 -7 -2 -0 -0 -4 -0 -1 -36 -16 -1 -2 -5 -5 -1 -2 -1 -1 -4 -3 -0 -1 -4 -6 -2 -2 -2 -49 -52 -51 -68 -61 -40 -33 -39
-2 -11 -1 -10 -31 -24 -11 -33 -3 -8 -3 -0 -1 -3 -3 -2 -7 -24 -6 -1 -8 -1 -0 -1 -3 -10 -4 -2 -2 -2 -4 -3 -4 -8 -2 -23 -30 -34 -37 -48 -44 -39 -41
-54 -6 -5 -7 -35 -69 -21 -71 -12 -19 -12 -17 -10 -12 -7 -0 -0 -0 -1 -3 -1 -1 -5 -3 -4 -2 -3 -1 -0 -2 -1 -2 -9 -21 -11 -1 -28 -35 -32 -37 -60 -64 -70
-120 -120 -2 -14 -24 -87 -104 -13 -5 -15 -20 -9 -17 -24 -12 -2 -1 -0 -0 -1 -18 -15 -34 -2 -2 -1 -1 -1 -7 -13 -41 -56 -52 -26 -45 -25 -56 -21 -36 -62 -123 -0 -27
-157 -113 -60 -0 -0 -0 -148 -33 -37 -49 -55 -36 -51 -54 -21 -0 -0 -9 -1 -1 -5 -9 -20 -1 -4 -1 -6 -20 -2 -0 -29 -25 -26 -8 -36 -31 -25 -64 -62 -45 -0 -0 -60
-94 -184 -88 -101 -103 -122 -66 -52 -52 -61 -67 -61 -62 -55 -35 -2 -1 -0 -2 -2 -9 -2 -1 -1 -8 -14 -32 -22 -2 -1 -9 -0 -8 -17 -37 -16 -14 -24 -7 -103 -146 -0 -118
-59 -231 -206 -108 -62 -50 -42 -61 -31 -0 -0 -74 -70 -79 -50 -3 -0 -0 -1 -1 -0 -5 -1 -3 -9 -2 -17 -12 -42 -1 -2 -10 -3 -3 -29 -14 -19 -12 -18 -56 -102 -145 -188
-84 -118 -241 -208 -139 -98 -87 -68 -86 -29 -62 -48 -57 -42 -31 -4 -0 -0 -0 -1 -1 -6 -18 -27 -10 -13 -13 -19 -30 -23 -9 -2 -11 -24 -9 -17 -29 -5 -22 -16 -27 -72 -155
-100 -100 -96 -103 -141 -131 -124 -101 -87 -75 -75 -65 -71 -49 -24 -2 -3 -1 -1 -1 -1 -14 -21 -27 -25 -25 -22 -11 -5 -4 -1 -11 -18 -47 -33 -9 -5 -4 -8 -3 -2 -106 -136
-164 -155 -124 -94 -75 -66 -68 -103 -77 -81 -60 -61 -25 -12 -0 -1 -0 -1 -1 -1 -0 -2 -3 -20 -23 -26 -4 -5 -9 -3 -7 -3 -9 -8 -2 -4 -3 -3 -10 -7 -13 -41 -94
-186 -197 -198 -161 -102 -73 -65 -64 -89 -108 -99 -91 -66 -3 -0 -5 -13 -4 -0 -0 -1 -1 -1 -1 -3 -1 -1 -4 -3 -3 -3 -7 -23 -5 -7 -2 -9 -10 -11 -4 -21 -11 -89
-201 -202 -208 -201 -177 -131 -89 -83 -97 -89 -96 -97 -43 -7 -2 -2 -2 -0 -1 -0 -0 -1 -1 -1 -1 -0 -2 -4 -16 -6 -2 -2 -2 -3 -5 -6 -1 -4 -6 -10 -6 -6 -0
Wind_Speed
18 21 23 22 24 32 26 11 9 8 6 17 9 7 3 7 6 6 4 23 28 29 30 29 30 30 30 30 29 28 27 27 27 26 27 27 25 23 17 10 13 9 6
20 24 23 24 24 26 14 9 10 10 8 7 6 1 2 16 22 25 27 21 20 25 26 28 29 30 30 30 29 29 26 25 26 25 26 26 25 20 13 13 17 11 9
26 29 31 13 11 13 9 7 13 13 7 5 3 2 4 12 15 17 17 17 16 18 22 26 27 28 29 29 29 28 27 23 22 23 23 25 23 22 18 9 13 11 9
18 25 31 7 4 3 8 11 12 9 5 2 2 5 5 9 12 15 15 17 19 19 21 24 25 26 27 27 27 26 25 22 18 15 18 23 23 23 21 20 11 12 10
12 31 27 14 10 6 6 6 2 3 3 3 4 4 5 7 9 14 15 14 16 17 18 19 22 23 24 25 23 22 19 18 16 13 24 15 25 23 21 19 20 21 10
26 24 19 13 12 7 5 4 2 5 8 9 7 9 9 7 9 13 14 15 15 16 17 19 19 20 22 23 23 21 17 15 14 20 22 22 24 23 21 20 20 20 20
6 16 17 15 12 9 6 7 6 10 12 11 7 11 12 11 12 13 14 15 15 16 17 19 19 19 21 21 20 18 15 13 16 20 21 22 22 21 21 20 20 19 19
16 19 20 15 14 9 11 10 9 7 9 11 10 12 12 12 12 14 15 15 17 17 17 16 16 17 18 19 15 15 12 12 13 20 15 19 22 20 19 18 18 18 18
12 9 14 16 14 12 10 17 13 10 8 10 11 9 12 13 13 16 17 17 17 17 17 16 17 17 17 12 12 12 12 11 12 13 17 18 19 18 17 16 16 16 16
6 4 8 27 20 19 22 19 17 12 10 8 12 12 13 13 15 17 16 15 16 16 16 16 15 15 15 14 13 12 13 13 13 10 17 17 17 15 15 15 14 14 13
3 3 4 7 10 22 22 21 22 24 18 10 11 15 18 13 15 16 15 16 16 16 16 16 15 15 11 11 12 12 11 10 9 18 14 17 16 14 13 12 12 11 11
6 8 7 7 23 22 21 24 23 21 17 9 10 11 6 13 14 15 16 16 16 16 14 14 14 11 11 4 8 8 10 21 21 18 13 15 15 13 11 11 10 9 9
22 23 16 23 23 22 20 12 20 19 17 9 10 12 13 14 16 15 14 15 12 13 12 10 11 11 20 21 23 23 23 20 20 19 14 15 16 14 12 10 10 8 7
23 21 25 23 22 10 20 15 19 21 19 16 10 13 14 17 17 20 19 19 17 18 18 22 21 21 20 18 17 19 11 21 21 19 13 14 16 14 12 10 10 9 9
29 30 25 20 23 22 22 17 9 14 12 15 13 11 13 14 15 15 17 13 8 10 10 10 15 13 8 5 13 11 7 20 23 19 17 13 15 16 14 13 13 12 12
31 29 25 21 24 23 22 21 19 17 19 14 13 13 11 14 5 11 11 13 10 20 9 9 15 11 11 7 7 7 9 10 8 4 17 12 12 12 13 13 14 13 14
30 29 28 26 24 24 23 22 20 19 17 16 14 13 11 10 20 9 16 8 9 18 12 10 9 8 8 7 7 7 9 9 8 12 8 14 10 10 10 14 17 17 15
29 29 28 27 25 25 23 21 20 18 17 15 13 12 11 9 9 8 7 8 18 12 8 9 12 16 10 8 10 14 14 12 15 14 18 20 21 21 13 15 20 23 19
29 29 29 27 26 25 23 21 20 18 16 14 13 13 20 14 15 7 5 9 7 6 7 9 10 12 14 13 10 18 16 17 12 17 18 16 14 18 19 18 19 21 16
28 28 28 27 26 24 22 20 20 19 17 15 12 9 20 21 17 17 9 10 13 6 8 8 15 13 12 13 14 16 14 13 12 11 18 16 21 21 20 29 29 30 28
26 27 26 25 23 22 19 17 17 18 14 11 8 6 12 17 20 20 22 24 19 14 13 12 10 10 13 16 18 22 19 12 9 11 16 24 27 22 29 29 29 33 34
25 25 25 24 23 21 19 18 20 18 14 11 7 8 7 11 22 22 22 22 19 18 15 11 10 13 12 15 20 25 26 24 14 11 29 22 24 18 26 28 29 28 30
25 26 26 25 23 22 22 19 19 17 14 11 8 6 7 8 8 7 18 18 19 15 12 11 9 10 15 21 18 19 23 24 30 33 31 22 27 24 25 29 33 28 29
27 26 26 23 23 21 21 20 18 16 13 10 8 7 9 8 8 7 9 13 14 11 15 11 10 9 10 14 23 19 14 19 25 29 26 26 25 24 27 35 35 31 32
27 25 23 22 21 20 19 19 16 14 12 9 8 6 7 5 4 5 8 7 10 9 7 9 12 12 14 14 21 22 23 20 19 23 28 28 34 29 25 28 29 35 34
26 24 23 21 20 19 17 15 15 12 9 8 7 5 5 4 5 4 8 9 9 10 12 12 15 16 17 22 29 30 28 28 26 32 35 36 36 34 34 33 32 30 35
Wind_Direction
180 175 169 167 162 147 157 171 169 168 167 165 174 175 170 30 175 176 182 64 113 88 105 104 95 90 86 90 97 95 101 94 93 105 94 82 78 104 177 271 261 4 350
181 170 172 167 162 159 173 177 177 178 181 187 193 325 6 43 56 68 75 52 49 65 67 73 76 87 84 82 89 91 103 107 106 108 103 82 82 126 205 355 39 360 358
166 159 152 176 177 176 179 181 181 180 196 209 222 342 359 31 36 41 40 40 36 42 53 67 71 76 79 81 86 89 96 115 124 119 121 97 71 97 124 247 342 333 337
182 166 149 88 131 151 189 188 186 195 213 279 298 1 2 15 28 36 35 43 47 47 53 62 65 68 71 80 85 90 100 114 134 142 130 111 72 87 103 106 39 339 316
164 110 97 76 71 64 200 205 240 232 341 296 328 341 347 4 15 32 36 30 39 42 45 47 53 60 67 83 100 106 121 132 137 148 98 149 78 88 105 120 111 104 251
99 89 81 70 66 55 44 24 323 11 24 19 16 20 12 353 14 31 35 34 34 34 35 40 40 41 64 71 87 101 123 138 140 106 97 102 75 92 106 111 116 123 97
64 74 74 69 61 53 41 34 22 33 40 31 3 28 27 20 24 26 31 33 31 30 37 40 37 42 72 66 90 111 130 142 128 87 85 76 77 93 105 109 110 110 124
75 81 82 68 68 47 49 42 29 2 15 29 21 28 27 21 21 28 29 30 39 39 35 23 18 22 37 70 123 129 146 155 174 55 106 67 63 85 100 111 116 112 112
66 48 61 71 66 55 41 68 43 22 6 21 29 9 27 31 25 32 39 35 34 36 46 37 37 39 32 149 164 156 173 178 258 131 86 52 58 73 89 103 109 110 116
32 26 41 130 87 74 91 67 62 34 19 2 27 31 35 30 38 47 40 10 356 0 22 14 44 44 45 76 103 158 167 181 141 115 3 28 46 69 82 87 91 97 108
278 288 312 31 46 94 91 85 92 103 68 19 21 46 77 25 53 50 5 11 358 348 340 339 26 19 86 113 96 96 140 105 65 351 32 31 38 61 70 79 83 84 88
82 245 34 66 112 115 98 127 126 128 150 303 300 316 58 335 336 345 23 41 34 32 43 43 43 72 58 44 65 88 50 330 323 348 17 15 18 33 47 55 70 71 67
128 122 97 131 140 137 97 224 172 153 63 332 295 301 334 333 345 25 34 23 37 37 33 44 35 42 340 339 323 323 327 337 335 339 14 11 5 5 13 26 27 51 45
135 128 133 134 125 43 186 223 160 109 127 169 290 309 318 314 325 331 341 338 25 275 4 327 331 334 348 3 5 349 29 332 324 342 19 21 11 5 8 17 13 12 2
146 144 136 118 142 148 172 206 269 200 223 200 191 298 284 292 286 275 318 235 189 127 100 93 252 222 163 116 40 2 174 276 305 341 356 17 11 8 0 358 359 356 350
150 160 143 126 143 144 170 181 184 180 164 215 235 268 219 271 323 227 212 234 85 321 196 170 249 211 239 124 104 121 180 181 122 323 298 34 25 31 25 12 3 357 347
156 159 155 154 146 159 169 176 172 150 160 160 171 146 180 194 297 202 301 143 60 16 72 104 178 169 176 178 103 160 163 88 104 41 128 28 75 65 55 26 16 7 359
159 156 161 159 156 158 162 168 178 169 169 160 167 190 189 109 89 190 136 95 11 50 106 78 57 36 70 111 92 69 62 71 32 53 9 354 350 346 29 16 1 351 351
162 161 164 166 167 162 164 172 172 172 171 178 188 229 307 250 39 99 124 68 72 89 124 63 56 52 51 67 92 35 37 30 64 20 15 14 21 10 5 7 0 354 353
159 160 165 166 168 167 170 170 186 190 188 187 179 163 0 353 353 291 229 56 41 106 114 78 25 43 55 52 39 22 29 31 27 20 3 6 352 353 351 338 339 335 339
152 159 160 162 162 164 159 154 160 176 171 166 152 97 33 8 349 354 283 318 11 37 26 34 65 63 38 16 10 354 356 14 10 356 350 340 332 339 332 334 339 332 326
149 154 160 164 164 161 163 165 181 185 179 170 112 72 68 30 323 337 344 350 9 14 30 44 47 23 23 8 354 346 338 341 351 358 334 336 333 345 336 333 333 337 334
152 158 161 165 166 169 173 167 174 181 185 181 169 145 122 125 138 106 6 6 2 21 31 36 41 23 3 344 346 349 344 339 333 324 326 331 324 331 334 331 326 330 332
160 158 163 161 165 166 168 175 170 177 173 161 151 129 100 110 108 98 52 29 19 16 357 5 4 1 357 346 338 337 335 334 334 330 327 326 324 324 323 324 324 324 330
158 155 153 155 158 163 160 170 169 168 175 164 158 140 97 121 113 95 61 55 33 29 21 5 352 345 343 339 335 330 326 326 322 322 324 323 322 324 325 324 324 320 322
157 154 150 146 148 152 155 156 168 162 150 151 119 121 109 96 67 68 38 27 18 12 4 356 347 340 336 333 328 327 324 323 324 323 320 319 319 322 323 323 323 322 322